Location: Starlight Observatory
(38.4029°N, 85.8936°W)
Time: 00:59:00
(UTC-04:00)

Iridium 84 - Visible Passes

Search period start: 29 September 2016 00:00
Search period end: 09 October 2016 00:00
Orbit: 776 x 779 km, 86.4° (Epoch: 28 September)

Date Brightness Start Highest point End Pass type
(mag) Time Alt. Az. Time Alt. Az. Time Alt. Az.
29 Sep 7.2 20:03:09 10° NNW 20:07:57 38° W 20:12:44 10° SSW visible
01 Oct 8.1 06:44:58 10° SE 06:49:11 25° E 06:53:24 10° NNE visible
01 Oct 8.8 20:38:27 10° NW 20:41:07 14° WNW 20:43:49 10° WSW visible
02 Oct 8.9 06:13:28 10° ESE 06:15:58 14° ENE 06:18:29 10° NE visible
02 Oct 8.0 20:03:38 10° NNW 20:07:55 26° W 20:12:12 10° SW visible
04 Oct 7.3 06:44:24 10° SSE 06:49:08 37° E 06:53:54 10° NNE visible
05 Oct 8.3 06:12:10 10° SE 06:15:52 20° E 06:19:35 10° NE visible
05 Oct 8.6 20:04:21 10° NW 20:07:50 18° W 20:11:20 10° WSW visible
06 Oct 9.0 05:42:00 10° E 05:42:42 10° ENE 05:43:25 10° ENE visible
07 Oct 6.4 06:44:06 10° SSE 06:49:09 54° E 06:54:14 10° NNE visible
08 Oct 7.6 06:11:23 10° SE 06:15:48 29° E 06:20:14 10° NNE visible
08 Oct 8.9 20:05:39 10° NW 20:07:43 12° WNW 20:09:48 10° W visible
